Showing default

GGSE 1 (GGRS), 728

Orbit data source: Space-Track

GGSE 1 (GGRS), 728 is an American payload satellite in LEO that was launched on Sat, 11 Jan 1964 UTC via a THOR SLV-2A AGENA D launch vehicle from the Air Force Western Test Range (AFWTR). Payload-class satellites include a variety of spacecraft equipped with specific instruments for various scientific and technological missions. These include communications satellites like Starlink; space stations such as the ISS; scientific satellites like the Hubble; Earth observation satellites from companies like Planet Labs, Umbra, and HawkEye 360; GPS; miniature CubeSats for education and research; and military/defense satellites.

Loading next visibility...
Identifier
728, 1964-001B
Orbit
LEO
Country
Flag of USUS
Related business
Manufacturer
NRL
Mission
Spacecraft
Bus & Motor
NRL 20", Unknown motor
Mass
38 kg wet, 38 kg dry
Launch date (UTC)
1964-01-11 (62 years ago)
Launch vehicle
THOR SLV-2A AGENA D
Launch site
Air Force Western Test Range (AFWTR)
Object type
Payload
Rocket body
Debris
Shape & HBR
Unknown
Radar Cross Section
Medium (>0.1 m² and <1 m²)

Expand to show TLE details & history
Last TLE update: 5 hours ago

TLE from 5 hours ago
0 GGSE 1 (GGRS)
1   728U 64001B   25308.47355789  .00000108  00000-0  11444-3 0  9990
2   728  69.9077 327.5079 0016666 275.5015  84.4189 13.97714107148276
Epoch: 2025-11-04T11:21Z
TLE epoch observation values (Epoch: 2025-11-04T11:21:55.401Z)
Latitude
-0.00011°
Longitude
113.06695°
Altitude
902.869 km
Speed
7.401 km/s
True Right ascension
21h 50m 01s
True Declination
0° 00' 00"
Sunlit
Object was in daylight at epoch
Visualization orbit readout
Latitude
Unknown
Longitude
Unknown
Altitude
Unknown
Speed
Unknown
Apparent Right ascension
Unknown
Apparent Declination
Unknown
Sunlit
N/A
Visualization observer readout
Local Sidereal Time
11:57:11
Azimuth
Unknown
Elevation
Unknown
Doppler factor
Unknown
Orbital elements
Apogee altitude
911.902 km
Perigee altitude
887.643 km
Semi-major axis
7,277.909 km
Eccentricity
0.00167
Inclination
69.9077°
RAAN
327.5079°
Arg. of periapsis
275.5015°
True anomaly
84.60901°
Mean anomaly
84.4189°
Eccentric anomaly
84.51395°
Mean motion
3.49569 °/min
Orbital period
102.98 mins
BSTAR
0.00011444
Loading maneuver chart data...
Computing Atmospheric mass density...
Loading historical data...
Loading historical data...
Loading historical data...
Loading historical data...
Loading historical data...
Loading historical data...
Loading historical data...
Other satellites on launch #1 in the year 1964 (1964-01-11 UTC)

Documentation

Showing up to 5 results
|